Location: Austin
(30.3000°N, 97.7500°W)
Time: 04:53:32
(UTC-06:00)

Meteor 1-20 Rocket - Pass Details

Date: 03 March 2026
Orbit: 819 x 890 km, 81.2° (Epoch: 5 March)

Event Time Altitude Azimuth Distance (km) Brightness Sun altitude
Rises 19:52:45 0° 182° (S) 3,437 7.4 -18.3°
Reaches altitude 10° 19:55:10 10° 181° (S) 2,512 6.6 -18.9°
Maximum altitude 20:00:53 77° 95° (E) 907 4.1 -20.1°
Drops below altitude 10° 20:06:41 10° 11° (N) 2,555 6.6 -21.3°
Sets 20:09:09 0° 10° (N) 3,500 7.4 -21.9°
